contact:dominique.lefevre@mio.osupytheas.fr, maurice.libes@osupytheas.fr, didier.mallarino@osupytheas.fr
Project:EMSO http://www.emso-fr.org/EMSO-France
Depth: 2436.0 m
Title:EMSO Ligure Ouest : Data MII capteur MICROCAT
DateTime_Computer,Latitude,Longitude,Temperature,Conductivity,Pressure,DateTime_Instrument
DateTime_Computer,Latitude,Longitude,degC,S m-1,dbar,DateTime_Instrument
2019-10-21T00:03:01Z,42.805,6.029,13.2957,4.59964,2469.993,2019-10-21T02:03:27Z
2019-10-21T00:06:04Z,42.805,6.029,13.2962,4.59959,2470.017,2019-10-21T02:06:30Z
2019-10-21T00:09:07Z,42.805,6.029,13.2962,4.59958,2469.993,2019-10-21T02:09:33Z
2019-10-21T00:12:10Z,42.805,6.029,13.2967,4.59958,2470.007,2019-10-21T02:12:36Z
2019-10-21T00:15:14Z,42.805,6.029,13.2965,4.59963,2470.017,2019-10-21T02:15:39Z
2019-10-21T00:18:17Z,42.805,6.029,13.2961,4.59962,2470.053,2019-10-21T02:18:43Z
2019-10-21T00:21:20Z,42.805,6.029,13.2961,4.59958,2469.956,2019-10-21T02:21:46Z
2019-10-21T00:24:23Z,42.805,6.029,13.2963,4.59963,2469.993,2019-10-21T02:24:49Z
2019-10-21T00:27:26Z,42.805,6.029,13.2966,4.59961,2470.017,2019-10-21T02:27:52Z
2019-10-21T00:30:30Z,42.805,6.029,13.2964,4.59959,2470.04,2019-10-21T02:30:55Z
2019-10-21T00:33:33Z,42.805,6.029,13.2961,4.59960,2469.993,2019-10-21T02:33:59Z
2019-10-21T00:36:36Z,42.805,6.029,13.2960,4.59960,2469.993,2019-10-21T02:37:02Z
2019-10-21T00:39:39Z,42.805,6.029,13.2960,4.59958,2469.993,2019-10-21T02:40:05Z
2019-10-21T00:42:42Z,42.805,6.029,13.2961,4.59960,2470.03,2019-10-21T02:43:08Z
2019-10-21T00:45:46Z,42.805,6.029,13.2960,4.59958,2469.984,2019-10-21T02:46:11Z
2019-10-21T00:48:49Z,42.805,6.029,13.2963,4.59958,2469.97,2019-10-21T02:49:15Z
2019-10-21T00:51:52Z,42.805,6.029,13.2959,4.59960,2470.007,2019-10-21T02:52:18Z
2019-10-21T00:54:55Z,42.805,6.029,13.2955,4.59966,2469.97,2019-10-21T02:55:21Z
2019-10-21T00:57:59Z,42.805,6.029,13.2958,4.59958,2469.993,2019-10-21T02:58:24Z
2019-10-21T01:01:02Z,42.805,6.029,13.2961,4.59961,2469.97,2019-10-21T03:01:28Z
2019-10-21T01:04:05Z,42.805,6.029,13.2958,4.59958,2469.993,2019-10-21T03:04:31Z
2019-10-21T01:07:08Z,42.805,6.029,13.2958,4.59958,2469.979,2019-10-21T03:07:34Z
2019-10-21T01:10:11Z,42.805,6.029,13.2959,4.59961,2469.984,2019-10-21T03:10:37Z
2019-10-21T01:13:15Z,42.805,6.029,13.2964,4.59957,2469.97,2019-10-21T03:13:41Z
2019-10-21T01:16:18Z,42.805,6.029,13.2960,4.59958,2469.97,2019-10-21T03:16:44Z
2019-10-21T01:19:21Z,42.805,6.029,13.2964,4.59960,2469.993,2019-10-21T03:19:47Z
2019-10-21T01:22:24Z,42.805,6.029,13.2961,4.59958,2469.984,2019-10-21T03:22:50Z
2019-10-21T01:25:28Z,42.805,6.029,13.2961,4.59958,2470.017,2019-10-21T03:25:53Z
2019-10-21T01:28:31Z,42.805,6.029,13.2960,4.59957,2469.984,2019-10-21T03:28:57Z
2019-10-21T01:31:34Z,42.805,6.029,13.2960,4.59957,2469.97,2019-10-21T03:32:00Z
2019-10-21T01:34:37Z,42.805,6.029,13.2962,4.59958,2469.97,2019-10-21T03:35:03Z
2019-10-21T01:37:40Z,42.805,6.029,13.2964,4.59958,2469.97,2019-10-21T03:38:06Z
2019-10-21T01:40:44Z,42.805,6.029,13.2961,4.59958,2469.993,2019-10-21T03:41:10Z
2019-10-21T01:43:47Z,42.805,6.029,13.2959,4.59958,2469.947,2019-10-21T03:44:13Z
2019-10-21T01:46:50Z,42.805,6.029,13.2959,4.59958,2469.984,2019-10-21T03:47:16Z
2019-10-21T01:49:54Z,42.805,6.029,13.2962,4.59962,2469.947,2019-10-21T03:50:19Z
2019-10-21T01:52:57Z,42.805,6.029,13.2959,4.59957,2469.993,2019-10-21T03:53:23Z
2019-10-21T01:56:00Z,42.805,6.029,13.2958,4.59958,2469.993,2019-10-21T03:56:26Z
2019-10-21T01:59:03Z,42.805,6.029,13.2960,4.59958,2469.984,2019-10-21T03:59:29Z
2019-10-21T02:02:06Z,42.805,6.029,13.2964,4.59957,2469.984,2019-10-21T04:02:32Z
2019-10-21T02:05:10Z,42.805,6.029,13.2958,4.59958,2469.97,2019-10-21T04:05:35Z
2019-10-21T02:08:13Z,42.805,6.029,13.2958,4.59961,2469.984,2019-10-21T04:08:39Z
2019-10-21T02:11:16Z,42.805,6.029,13.2957,4.59958,2469.984,2019-10-21T04:11:42Z
2019-10-21T02:14:19Z,42.805,6.029,13.2958,4.59960,2469.97,2019-10-21T04:14:45Z
2019-10-21T02:17:23Z,42.805,6.029,13.2962,4.59961,2469.984,2019-10-21T04:17:48Z
2019-10-21T02:20:26Z,42.805,6.029,13.2965,4.59961,2469.97,2019-10-21T04:20:52Z
2019-10-21T02:23:29Z,42.805,6.029,13.2961,4.59958,2469.96,2019-10-21T04:23:55Z
2019-10-21T02:26:33Z,42.805,6.029,13.2958,4.59958,2469.96,2019-10-21T04:26:59Z
2019-10-21T02:29:36Z,42.805,6.029,13.2963,4.59958,2469.947,2019-10-21T04:30:02Z
2019-10-21T02:32:39Z,42.805,6.029,13.2961,4.59958,2469.984,2019-10-21T04:33:05Z
2019-10-21T02:35:42Z,42.805,6.029,13.2958,4.59958,2469.97,2019-10-21T04:36:08Z
2019-10-21T02:38:46Z,42.805,6.029,13.2961,4.59959,2469.947,2019-10-21T04:39:11Z
2019-10-21T02:41:49Z,42.805,6.029,13.2967,4.59958,2469.96,2019-10-21T04:42:14Z
2019-10-21T02:44:52Z,42.805,6.029,13.2959,4.59958,2469.993,2019-10-21T04:45:18Z
2019-10-21T02:47:55Z,42.805,6.029,13.2958,4.59958,2469.97,2019-10-21T04:48:21Z
2019-10-21T02:50:58Z,42.805,6.029,13.2961,4.59957,2469.984,2019-10-21T04:51:24Z
2019-10-21T02:54:02Z,42.805,6.029,13.2960,4.59958,2469.923,2019-10-21T04:54:28Z
2019-10-21T02:57:05Z,42.805,6.029,13.2961,4.59957,2469.947,2019-10-21T04:57:31Z
2019-10-21T03:00:08Z,42.805,6.029,13.2959,4.59958,2469.947,2019-10-21T05:00:34Z
2019-10-21T03:03:11Z,42.805,6.029,13.2961,4.59958,2469.97,2019-10-21T05:03:37Z
2019-10-21T03:06:15Z,42.805,6.029,13.2959,4.59958,2469.96,2019-10-21T05:06:40Z
2019-10-21T03:09:18Z,42.805,6.029,13.2960,4.59958,2469.956,2019-10-21T05:09:44Z
2019-10-21T03:12:21Z,42.805,6.029,13.2960,4.59957,2469.914,2019-10-21T05:12:47Z
2019-10-21T03:15:24Z,42.805,6.029,13.2961,4.59957,2469.96,2019-10-21T05:15:50Z
2019-10-21T03:18:28Z,42.805,6.029,13.2957,4.59956,2469.914,2019-10-21T05:18:53Z
2019-10-21T03:21:31Z,42.805,6.029,13.2957,4.59956,2469.947,2019-10-21T05:21:57Z
2019-10-21T03:24:34Z,42.805,6.029,13.2958,4.59958,2469.937,2019-10-21T05:25:00Z
2019-10-21T03:27:37Z,42.805,6.029,13.2958,4.59956,2469.937,2019-10-21T05:28:03Z
2019-10-21T03:30:40Z,42.805,6.029,13.2959,4.59957,2469.984,2019-10-21T05:31:06Z
2019-10-21T03:33:43Z,42.805,6.029,13.2959,4.59957,2469.96,2019-10-21T05:34:09Z
2019-10-21T03:36:47Z,42.805,6.029,13.2960,4.59957,2469.97,2019-10-21T05:37:13Z
2019-10-21T03:39:50Z,42.805,6.029,13.2960,4.59956,2469.923,2019-10-21T05:40:16Z
2019-10-21T03:42:53Z,42.805,6.029,13.2961,4.59956,2469.923,2019-10-21T05:43:19Z
2019-10-21T03:45:57Z,42.805,6.029,13.2962,4.59956,2469.923,2019-10-21T05:46:22Z
2019-10-21T03:49:00Z,42.805,6.029,13.2959,4.59956,2469.96,2019-10-21T05:49:26Z
2019-10-21T03:52:03Z,42.805,6.029,13.2956,4.59956,2469.96,2019-10-21T05:52:29Z
2019-10-21T03:55:06Z,42.805,6.029,13.2958,4.59956,2469.96,2019-10-21T05:55:32Z
2019-10-21T03:58:09Z,42.805,6.029,13.2957,4.59956,2469.923,2019-10-21T05:58:35Z
2019-10-21T04:01:13Z,42.805,6.029,13.2961,4.59956,2469.937,2019-10-21T06:01:38Z
2019-10-21T04:04:16Z,42.805,6.029,13.2957,4.59956,2469.9,2019-10-21T06:04:42Z
2019-10-21T04:07:19Z,42.805,6.029,13.2961,4.59956,2469.947,2019-10-21T06:07:45Z
2019-10-21T04:10:22Z,42.805,6.029,13.2957,4.59958,2469.96,2019-10-21T06:10:48Z
2019-10-21T04:13:26Z,42.805,6.029,13.2957,4.59956,2469.923,2019-10-21T06:13:51Z
2019-10-21T04:16:29Z,42.805,6.029,13.2956,4.59957,2469.923,2019-10-21T06:16:55Z
2019-10-21T04:19:32Z,42.805,6.029,13.2955,4.59966,2469.923,2019-10-21T06:19:58Z
2019-10-21T04:22:35Z,42.805,6.029,13.2960,4.59956,2469.947,2019-10-21T06:23:01Z
2019-10-21T04:25:38Z,42.805,6.029,13.2957,4.59956,2469.914,2019-10-21T06:26:04Z
2019-10-21T04:28:42Z,42.805,6.029,13.2961,4.59956,2469.923,2019-10-21T06:29:07Z
2019-10-21T04:31:45Z,42.805,6.029,13.2959,4.59956,2469.923,2019-10-21T06:32:11Z
2019-10-21T04:34:48Z,42.805,6.029,13.2958,4.59956,2469.923,2019-10-21T06:35:14Z
2019-10-21T04:37:51Z,42.805,6.029,13.2957,4.59956,2469.937,2019-10-21T06:38:17Z
2019-10-21T04:40:55Z,42.805,6.029,13.2957,4.59956,2469.947,2019-10-21T06:41:20Z
2019-10-21T04:43:58Z,42.805,6.029,13.2956,4.59956,2469.947,2019-10-21T06:44:24Z
2019-10-21T04:47:01Z,42.805,6.029,13.2957,4.59956,2469.923,2019-10-21T06:47:27Z
2019-10-21T04:50:04Z,42.805,6.029,13.2957,4.59956,2469.937,2019-10-21T06:50:30Z
2019-10-21T04:53:07Z,42.805,6.029,13.2962,4.59956,2469.947,2019-10-21T06:53:33Z
2019-10-21T04:56:11Z,42.805,6.029,13.2958,4.59956,2469.9,2019-10-21T06:56:36Z
2019-10-21T04:59:14Z,42.805,6.029,13.2958,4.59957,2469.947,2019-10-21T06:59:40Z
2019-10-21T05:02:17Z,42.805,6.029,13.2957,4.59958,2469.923,2019-10-21T07:02:43Z
2019-10-21T05:05:20Z,42.805,6.029,13.2954,4.59956,2469.923,2019-10-21T07:05:46Z
2019-10-21T05:08:23Z,42.805,6.029,13.2958,4.59956,2469.937,2019-10-21T07:08:49Z
2019-10-21T05:11:27Z,42.805,6.029,13.2957,4.59956,2469.96,2019-10-21T07:11:52Z
2019-10-21T05:14:30Z,42.805,6.029,13.2958,4.59957,2469.923,2019-10-21T07:14:56Z
2019-10-21T05:17:33Z,42.805,6.029,13.2956,4.59956,2469.937,2019-10-21T07:17:59Z
2019-10-21T05:20:36Z,42.805,6.029,13.2958,4.59956,2469.923,2019-10-21T07:21:02Z
2019-10-21T05:23:40Z,42.805,6.029,13.2962,4.59957,2469.937,2019-10-21T07:24:05Z
2019-10-21T05:26:43Z,42.805,6.029,13.2961,4.59956,2469.89,2019-10-21T07:27:09Z
2019-10-21T05:29:46Z,42.805,6.029,13.2956,4.59955,2469.923,2019-10-21T07:30:12Z
2019-10-21T05:32:49Z,42.805,6.029,13.2958,4.59956,2469.937,2019-10-21T07:33:15Z
2019-10-21T05:35:52Z,42.805,6.029,13.2958,4.59956,2469.923,2019-10-21T07:36:18Z
2019-10-21T05:38:56Z,42.805,6.029,13.2960,4.59956,2469.914,2019-10-21T07:39:22Z
2019-10-21T05:41:59Z,42.805,6.029,13.2956,4.59956,2469.923,2019-10-21T07:42:25Z
2019-10-21T05:45:02Z,42.805,6.029,13.2957,4.59956,2469.96,2019-10-21T07:45:28Z
2019-10-21T05:48:05Z,42.805,6.029,13.2958,4.59956,2469.937,2019-10-21T07:48:31Z
2019-10-21T05:51:09Z,42.805,6.029,13.2958,4.59958,2469.9,2019-10-21T07:51:34Z
2019-10-21T05:54:12Z,42.805,6.029,13.2959,4.59956,2469.9,2019-10-21T07:54:38Z
2019-10-21T05:57:15Z,42.805,6.029,13.2955,4.59956,2469.937,2019-10-21T07:57:41Z
2019-10-21T06:00:18Z,42.805,6.029,13.2958,4.59956,2469.923,2019-10-21T08:00:44Z
2019-10-21T06:03:22Z,42.805,6.029,13.2958,4.59963,2469.914,2019-10-21T08:03:47Z
2019-10-21T06:06:25Z,42.805,6.029,13.2962,4.59956,2469.923,2019-10-21T08:06:51Z
2019-10-21T06:09:28Z,42.805,6.029,13.2955,4.59956,2469.923,2019-10-21T08:09:54Z
2019-10-21T06:12:31Z,42.805,6.029,13.2962,4.59956,2469.937,2019-10-21T08:12:57Z
2019-10-21T06:15:35Z,42.805,6.029,13.2960,4.59958,2469.937,2019-10-21T08:16:00Z
2019-10-21T06:18:38Z,42.805,6.029,13.2960,4.59957,2469.923,2019-10-21T08:19:04Z
2019-10-21T06:21:41Z,42.805,6.029,13.2958,4.59971,2469.914,2019-10-21T08:22:07Z
2019-10-21T06:24:44Z,42.805,6.029,13.2961,4.59958,2469.9,2019-10-21T08:25:10Z
2019-10-21T06:27:47Z,42.805,6.029,13.2960,4.59958,2469.914,2019-10-21T08:28:13Z
2019-10-21T06:30:51Z,42.805,6.029,13.2955,4.59960,2469.923,2019-10-21T08:31:17Z
2019-10-21T06:33:54Z,42.805,6.029,13.2957,4.59957,2469.937,2019-10-21T08:34:20Z
2019-10-21T06:36:57Z,42.805,6.029,13.2958,4.59967,2469.923,2019-10-21T08:37:23Z
2019-10-21T06:40:00Z,42.805,6.029,13.2961,4.59958,2469.937,2019-10-21T08:40:26Z
2019-10-21T06:43:04Z,42.805,6.029,13.2958,4.59958,2469.909,2019-10-21T08:43:29Z
2019-10-21T06:46:07Z,42.805,6.029,13.2958,4.59956,2469.947,2019-10-21T08:46:33Z
2019-10-21T06:49:10Z,42.805,6.029,13.2958,4.59958,2469.947,2019-10-21T08:49:36Z
2019-10-21T06:52:13Z,42.805,6.029,13.2960,4.59957,2469.947,2019-10-21T08:52:39Z
2019-10-21T06:55:17Z,42.805,6.029,13.2957,4.59961,2469.947,2019-10-21T08:55:42Z
2019-10-21T06:58:20Z,42.805,6.029,13.2960,4.59962,2469.937,2019-10-21T08:58:46Z
2019-10-21T07:01:23Z,42.805,6.029,13.2962,4.59957,2469.96,2019-10-21T09:01:49Z
2019-10-21T07:04:26Z,42.805,6.029,13.2956,4.59966,2469.96,2019-10-21T09:04:52Z
2019-10-21T07:07:29Z,42.805,6.029,13.2958,4.59958,2469.937,2019-10-21T09:07:55Z
2019-10-21T07:10:33Z,42.805,6.029,13.2958,4.59960,2469.923,2019-10-21T09:10:58Z
2019-10-21T07:13:36Z,42.805,6.029,13.2957,4.59958,2469.96,2019-10-21T09:14:02Z
2019-10-21T07:16:39Z,42.805,6.029,13.2961,4.59958,2469.923,2019-10-21T09:17:05Z
2019-10-21T07:19:42Z,42.805,6.029,13.2958,4.59957,2469.96,2019-10-21T09:20:08Z
2019-10-21T07:22:46Z,42.805,6.029,13.2958,4.59958,2469.9,2019-10-21T09:23:11Z
2019-10-21T07:25:49Z,42.805,6.029,13.2959,4.59971,2469.914,2019-10-21T09:26:15Z
2019-10-21T07:28:52Z,42.805,6.029,13.2957,4.59957,2469.937,2019-10-21T09:29:18Z
2019-10-21T07:31:55Z,42.805,6.029,13.2960,4.59960,2469.923,2019-10-21T09:32:21Z
2019-10-21T07:34:58Z,42.805,6.029,13.2959,4.59960,2469.984,2019-10-21T09:35:24Z
2019-10-21T07:38:02Z,42.805,6.029,13.2962,4.59957,2469.947,2019-10-21T09:38:27Z
2019-10-21T07:41:05Z,42.805,6.029,13.2956,4.59960,2469.96,2019-10-21T09:41:31Z
2019-10-21T07:44:08Z,42.805,6.029,13.2959,4.59957,2469.923,2019-10-21T09:44:34Z
2019-10-21T07:47:11Z,42.805,6.029,13.2957,4.59958,2469.947,2019-10-21T09:47:37Z
2019-10-21T07:50:15Z,42.805,6.029,13.2959,4.59956,2469.947,2019-10-21T09:50:40Z
2019-10-21T07:53:18Z,42.805,6.029,13.2958,4.59958,2469.923,2019-10-21T09:53:44Z
2019-10-21T07:56:21Z,42.805,6.029,13.2962,4.59958,2469.96,2019-10-21T09:56:47Z
2019-10-21T07:59:24Z,42.805,6.029,13.2960,4.59966,2469.937,2019-10-21T09:59:50Z
2019-10-21T08:02:27Z,42.805,6.029,13.2958,4.59957,2469.947,2019-10-21T10:02:53Z
2019-10-21T08:05:31Z,42.805,6.029,13.2960,4.59959,2469.984,2019-10-21T10:05:56Z
2019-10-21T08:08:34Z,42.805,6.029,13.2960,4.59958,2469.947,2019-10-21T10:09:00Z
2019-10-21T08:11:37Z,42.805,6.029,13.2958,4.59963,2469.96,2019-10-21T10:12:03Z
2019-10-21T08:14:40Z,42.805,6.029,13.2958,4.59958,2469.96,2019-10-21T10:15:06Z
2019-10-21T08:17:44Z,42.805,6.029,13.2959,4.59967,2469.923,2019-10-21T10:18:09Z
2019-10-21T08:20:47Z,42.805,6.029,13.2960,4.59957,2469.947,2019-10-21T10:21:13Z
2019-10-21T08:23:50Z,42.805,6.029,13.2961,4.59958,2469.947,2019-10-21T10:24:16Z
2019-10-21T08:26:53Z,42.805,6.029,13.2958,4.59958,2469.97,2019-10-21T10:27:19Z
2019-10-21T08:29:56Z,42.805,6.029,13.2959,4.59958,2469.97,2019-10-21T10:30:22Z
2019-10-21T08:33:00Z,42.805,6.029,13.2956,4.59958,2469.97,2019-10-21T10:33:25Z
2019-10-21T08:36:03Z,42.805,6.029,13.2957,4.59957,2469.997,2019-10-21T10:36:29Z
2019-10-21T08:39:06Z,42.805,6.029,13.2958,4.59958,2469.947,2019-10-21T10:39:32Z
2019-10-21T08:42:09Z,42.805,6.029,13.2959,4.59958,2469.97,2019-10-21T10:42:35Z
2019-10-21T08:45:12Z,42.805,6.029,13.2957,4.59958,2469.96,2019-10-21T10:45:38Z
2019-10-21T08:48:16Z,42.805,6.029,13.2961,4.59958,2469.97,2019-10-21T10:48:41Z
2019-10-21T08:51:19Z,42.805,6.029,13.2959,4.59958,2469.97,2019-10-21T10:51:45Z
2019-10-21T08:54:22Z,42.805,6.029,13.2963,4.59958,2469.97,2019-10-21T10:54:48Z
2019-10-21T08:57:25Z,42.805,6.029,13.2964,4.59958,2470.007,2019-10-21T10:57:51Z
2019-10-21T09:00:29Z,42.805,6.029,13.2962,4.59957,2469.984,2019-10-21T11:00:54Z
2019-10-21T09:03:32Z,42.805,6.029,13.2957,4.59957,2470.007,2019-10-21T11:03:58Z
2019-10-21T09:06:35Z,42.805,6.029,13.2961,4.59957,2469.97,2019-10-21T11:07:01Z
2019-10-21T09:09:38Z,42.805,6.029,13.2958,4.59958,2469.993,2019-10-21T11:10:04Z
2019-10-21T09:12:41Z,42.805,6.029,13.2957,4.59958,2469.993,2019-10-21T11:13:07Z
2019-10-21T09:15:45Z,42.805,6.029,13.2956,4.59967,2469.97,2019-10-21T11:16:10Z
2019-10-21T09:18:48Z,42.805,6.029,13.2960,4.59956,2470.017,2019-10-21T11:19:14Z
2019-10-21T09:21:51Z,42.805,6.029,13.2961,4.59957,2470.007,2019-10-21T11:22:17Z
2019-10-21T09:24:54Z,42.805,6.029,13.2958,4.59960,2469.984,2019-10-21T11:25:20Z
2019-10-21T09:27:58Z,42.805,6.029,13.2958,4.59957,2469.993,2019-10-21T11:28:23Z
2019-10-21T09:31:01Z,42.805,6.029,13.2962,4.59960,2470.03,2019-10-21T11:31:27Z
2019-10-21T09:34:04Z,42.805,6.029,13.2955,4.59960,2470.007,2019-10-21T11:34:30Z
2019-10-21T09:37:07Z,42.805,6.029,13.2960,4.59958,2470.063,2019-10-21T11:37:33Z
2019-10-21T09:40:10Z,42.805,6.029,13.2957,4.59958,2470.03,2019-10-21T11:40:36Z
2019-10-21T09:43:14Z,42.805,6.029,13.2957,4.59958,2470.03,2019-10-21T11:43:39Z
2019-10-21T09:46:17Z,42.805,6.029,13.2961,4.59965,2470.03,2019-10-21T11:46:43Z
2019-10-21T09:49:20Z,42.805,6.029,13.2961,4.59958,2470.04,2019-10-21T11:49:46Z
2019-10-21T09:52:23Z,42.805,6.029,13.2962,4.59958,2470.017,2019-10-21T11:52:49Z
2019-10-21T09:55:27Z,42.805,6.029,13.2960,4.59958,2470.053,2019-10-21T11:55:52Z
2019-10-21T09:58:30Z,42.805,6.029,13.2959,4.59961,2470.03,2019-10-21T11:58:56Z
2019-10-21T10:01:33Z,42.805,6.029,13.2957,4.59960,2470.1,2019-10-21T12:01:59Z
2019-10-21T10:04:36Z,42.805,6.029,13.2963,4.59958,2470.077,2019-10-21T12:05:02Z
2019-10-21T10:07:39Z,42.805,6.029,13.2960,4.59958,2470.017,2019-10-21T12:08:05Z
2019-10-21T10:10:43Z,42.805,6.029,13.2957,4.59959,2470.04,2019-10-21T12:11:08Z
2019-10-21T10:13:46Z,42.805,6.029,13.2960,4.59959,2470.077,2019-10-21T12:14:12Z
2019-10-21T10:16:49Z,42.805,6.029,13.2957,4.59958,2470.04,2019-10-21T12:17:15Z
2019-10-21T10:19:52Z,42.805,6.029,13.2961,4.59958,2470.077,2019-10-21T12:20:18Z
2019-10-21T10:22:56Z,42.805,6.029,13.2955,4.59959,2470.04,2019-10-21T12:23:21Z
2019-10-21T10:25:59Z,42.805,6.029,13.2957,4.59958,2470.04,2019-10-21T12:26:25Z
2019-10-21T10:29:02Z,42.805,6.029,13.2959,4.59958,2470.017,2019-10-21T12:29:28Z
2019-10-21T10:32:05Z,42.805,6.029,13.2962,4.59958,2470.077,2019-10-21T12:32:31Z
2019-10-21T10:35:09Z,42.805,6.029,13.2963,4.59958,2470.017,2019-10-21T12:35:34Z
2019-10-21T10:38:12Z,42.805,6.029,13.2958,4.59957,2470.077,2019-10-21T12:38:38Z
2019-10-21T10:41:15Z,42.805,6.029,13.2958,4.59958,2470.04,2019-10-21T12:41:41Z
2019-10-21T10:44:18Z,42.805,6.029,13.2959,4.59958,2470.053,2019-10-21T12:44:44Z
2019-10-21T10:47:22Z,42.805,6.029,13.2957,4.59958,2470.053,2019-10-21T12:47:47Z
2019-10-21T10:50:25Z,42.805,6.029,13.2957,4.59958,2470.04,2019-10-21T12:50:51Z
2019-10-21T10:53:28Z,42.805,6.029,13.2957,4.59958,2470.053,2019-10-21T12:53:54Z
2019-10-21T10:56:31Z,42.805,6.029,13.2958,4.59958,2470.077,2019-10-21T12:56:57Z
2019-10-21T10:59:34Z,42.805,6.029,13.2959,4.59962,2470.017,2019-10-21T13:00:00Z
2019-10-21T11:02:38Z,42.805,6.029,13.2957,4.59958,2470.04,2019-10-21T13:03:03Z
2019-10-21T11:05:41Z,42.805,6.029,13.2964,4.59958,2470.04,2019-10-21T13:06:07Z
2019-10-21T11:08:44Z,42.805,6.029,13.2961,4.59959,2470.053,2019-10-21T13:09:10Z
2019-10-21T11:11:47Z,42.805,6.029,13.2959,4.59960,2470.077,2019-10-21T13:12:13Z
2019-10-21T11:14:50Z,42.805,6.029,13.2957,4.59958,2470.077,2019-10-21T13:15:16Z
2019-10-21T11:17:54Z,42.805,6.029,13.2957,4.59958,2470.04,2019-10-21T13:18:20Z
2019-10-21T11:20:57Z,42.805,6.029,13.2955,4.59957,2470.053,2019-10-21T13:21:23Z
2019-10-21T11:24:00Z,42.805,6.029,13.2957,4.59958,2470.077,2019-10-21T13:24:26Z
2019-10-21T11:27:04Z,42.805,6.029,13.2961,4.59960,2470.053,2019-10-21T13:27:29Z
2019-10-21T11:30:07Z,42.805,6.029,13.2958,4.59958,2470.1,2019-10-21T13:30:33Z
2019-10-21T11:33:10Z,42.805,6.029,13.2959,4.59958,2470.04,2019-10-21T13:33:36Z
2019-10-21T11:36:13Z,42.805,6.029,13.2959,4.59960,2470.017,2019-10-21T13:36:39Z
2019-10-21T11:39:16Z,42.805,6.029,13.2957,4.59958,2470.063,2019-10-21T13:39:42Z
2019-10-21T11:42:20Z,42.805,6.029,13.2962,4.59958,2470.063,2019-10-21T13:42:45Z
2019-10-21T11:45:23Z,42.805,6.029,13.2959,4.59958,2470.053,2019-10-21T13:45:49Z
2019-10-21T11:48:26Z,42.805,6.029,13.2962,4.59958,2470.063,2019-10-21T13:48:52Z
2019-10-21T11:51:29Z,42.805,6.029,13.2957,4.59958,2470.04,2019-10-21T13:51:55Z
2019-10-21T11:54:33Z,42.805,6.029,13.2960,4.59957,2470.077,2019-10-21T13:54:58Z
2019-10-21T11:57:36Z,42.805,6.029,13.2957,4.59958,2470.04,2019-10-21T13:58:02Z
2019-10-21T12:00:39Z,42.805,6.029,13.2963,4.59958,2470.053,2019-10-21T14:01:05Z
2019-10-21T12:03:42Z,42.805,6.029,13.2962,4.59965,2470.053,2019-10-21T14:04:08Z
2019-10-21T12:06:45Z,42.805,6.029,13.2961,4.59960,2470.04,2019-10-21T14:07:11Z
2019-10-21T12:09:49Z,42.805,6.029,13.2959,4.59963,2470.053,2019-10-21T14:10:14Z
2019-10-21T12:12:52Z,42.805,6.029,13.2955,4.59960,2470.077,2019-10-21T14:13:18Z
2019-10-21T12:15:55Z,42.805,6.029,13.2961,4.59961,2470.063,2019-10-21T14:16:21Z
2019-10-21T12:18:58Z,42.805,6.029,13.2962,4.59962,2470.1,2019-10-21T14:19:24Z
2019-10-21T12:22:02Z,42.805,6.029,13.2958,4.59961,2470.049,2019-10-21T14:22:27Z
2019-10-21T12:25:05Z,42.805,6.029,13.2958,4.59961,2470.04,2019-10-21T14:25:31Z
2019-10-21T12:28:08Z,42.805,6.029,13.2960,4.59959,2470.053,2019-10-21T14:28:34Z
2019-10-21T12:31:11Z,42.805,6.029,13.2964,4.59961,2470.077,2019-10-21T14:31:37Z
2019-10-21T12:34:14Z,42.805,6.029,13.2962,4.59966,2470.077,2019-10-21T14:34:40Z
2019-10-21T12:37:18Z,42.805,6.029,13.2958,4.59962,2470.063,2019-10-21T14:37:43Z
2019-10-21T12:40:21Z,42.805,6.029,13.2961,4.59961,2470.087,2019-10-21T14:40:47Z
2019-10-21T12:43:24Z,42.805,6.029,13.2959,4.59961,2470.053,2019-10-21T14:43:50Z
2019-10-21T12:46:27Z,42.805,6.029,13.2961,4.59960,2470.03,2019-10-21T14:46:53Z
2019-10-21T12:49:30Z,42.805,6.029,13.2958,4.59959,2470.077,2019-10-21T14:49:56Z
2019-10-21T12:52:34Z,42.805,6.029,13.2961,4.59959,2470.063,2019-10-21T14:53:00Z
2019-10-21T12:55:37Z,42.805,6.029,13.2958,4.59958,2470.04,2019-10-21T14:56:03Z
2019-10-21T12:58:40Z,42.805,6.029,13.2961,4.59959,2470.04,2019-10-21T14:59:06Z
2019-10-21T13:01:44Z,42.805,6.029,13.2960,4.59958,2470.053,2019-10-21T15:02:10Z
2019-10-21T13:04:47Z,42.805,6.029,13.2961,4.59958,2470.04,2019-10-21T15:05:13Z
2019-10-21T13:07:50Z,42.805,6.029,13.2961,4.59961,2470.063,2019-10-21T15:08:16Z
2019-10-21T13:10:53Z,42.805,6.029,13.2958,4.59959,2470.063,2019-10-21T15:11:19Z
2019-10-21T13:13:57Z,42.805,6.029,13.2956,4.59958,2470.1,2019-10-21T15:14:22Z
2019-10-21T13:17:00Z,42.805,6.029,13.2958,4.59960,2470.04,2019-10-21T15:17:26Z
2019-10-21T13:20:03Z,42.805,6.029,13.2957,4.59958,2470.063,2019-10-21T15:20:29Z
2019-10-21T13:23:06Z,42.805,6.029,13.2958,4.59959,2470.04,2019-10-21T15:23:32Z
2019-10-21T13:26:09Z,42.805,6.029,13.2956,4.59961,2470.063,2019-10-21T15:26:35Z
2019-10-21T13:29:13Z,42.805,6.029,13.2958,4.59961,2470.077,2019-10-21T15:29:39Z
2019-10-21T13:32:16Z,42.805,6.029,13.2963,4.59961,2470.063,2019-10-21T15:32:42Z
2019-10-21T13:35:19Z,42.805,6.029,13.2960,4.59961,2470.1,2019-10-21T15:35:45Z
2019-10-21T13:38:22Z,42.805,6.029,13.2958,4.59959,2470.077,2019-10-21T15:38:48Z
2019-10-21T13:41:26Z,42.805,6.029,13.2957,4.59961,2470.053,2019-10-21T15:41:51Z
2019-10-21T13:44:29Z,42.805,6.029,13.2956,4.59960,2470.04,2019-10-21T15:44:55Z
2019-10-21T13:47:32Z,42.805,6.029,13.2958,4.59962,2470.053,2019-10-21T15:47:58Z
2019-10-21T13:50:35Z,42.805,6.029,13.2960,4.59961,2470.063,2019-10-21T15:51:01Z
2019-10-21T13:53:38Z,42.805,6.029,13.2961,4.59958,2470.073,2019-10-21T15:54:04Z
2019-10-21T13:56:42Z,42.805,6.029,13.2961,4.59961,2470.063,2019-10-21T15:57:08Z
2019-10-21T13:59:45Z,42.805,6.029,13.2961,4.59961,2470.063,2019-10-21T16:00:11Z
2019-10-21T14:02:48Z,42.805,6.029,13.2959,4.59962,2470.017,2019-10-21T16:03:14Z
2019-10-21T14:05:51Z,42.805,6.029,13.2958,4.59961,2470.053,2019-10-21T16:06:17Z
2019-10-21T14:08:54Z,42.805,6.029,13.2960,4.59961,2470.063,2019-10-21T16:09:20Z
2019-10-21T14:11:58Z,42.805,6.029,13.2959,4.59960,2470.04,2019-10-21T16:12:24Z
2019-10-21T14:15:01Z,42.805,6.029,13.2957,4.59958,2470.053,2019-10-21T16:15:27Z
2019-10-21T14:18:04Z,42.805,6.029,13.2959,4.59958,2470.04,2019-10-21T16:18:30Z
2019-10-21T14:21:07Z,42.805,6.029,13.2958,4.59958,2470.04,2019-10-21T16:21:33Z
2019-10-21T14:24:11Z,42.805,6.029,13.2962,4.59958,2470.03,2019-10-21T16:24:36Z
2019-10-21T14:27:14Z,42.805,6.029,13.2958,4.59958,2470.077,2019-10-21T16:27:40Z
2019-10-21T14:30:17Z,42.805,6.029,13.2960,4.59961,2470.04,2019-10-21T16:30:43Z
2019-10-21T14:33:20Z,42.805,6.029,13.2962,4.59960,2470.04,2019-10-21T16:33:46Z
2019-10-21T14:36:24Z,42.805,6.029,13.2961,4.59959,2470.017,2019-10-21T16:36:49Z
2019-10-21T14:39:27Z,42.805,6.029,13.2960,4.59960,2470.053,2019-10-21T16:39:53Z
2019-10-21T14:42:30Z,42.805,6.029,13.2959,4.59964,2470.077,2019-10-21T16:42:56Z
2019-10-21T14:45:33Z,42.805,6.029,13.2961,4.59958,2470.04,2019-10-21T16:45:59Z
2019-10-21T14:48:36Z,42.805,6.029,13.2962,4.59958,2470.017,2019-10-21T16:49:02Z
2019-10-21T14:51:40Z,42.805,6.029,13.2962,4.59963,2470.017,2019-10-21T16:52:05Z
2019-10-21T14:54:43Z,42.805,6.029,13.2963,4.59958,2470.017,2019-10-21T16:55:09Z
2019-10-21T14:57:46Z,42.805,6.029,13.2961,4.59964,2470.003,2019-10-21T16:58:12Z
2019-10-21T15:00:50Z,42.805,6.029,13.2957,4.59958,2470.03,2019-10-21T17:01:15Z
2019-10-21T15:03:53Z,42.805,6.029,13.2963,4.59961,2470.017,2019-10-21T17:04:19Z